[[{"header":{"parameterUnit":"m.s-1","parameterCategory":1,"la1":30.2991,"la2":30.254,"lo1":-89.0895,"lo2":-89.0444,"dy":0.0017,"dx":0.0017,"nx":28,"ny":28,"refTime":"2025-06-03T09:00:00:Z","depth":0,"parameterNumber":2,"parameterNumberName":"U-component_of_WINDS"},"data":[0,0,0,0,0,0,0,0,0,0,0,0,0,0,0,0,0,0,0,0,0,0,0,0,0,0,0,0,0,0,0,0,0,0,0,0,0,0,0,0,0,0,0,0,0,0,0,0,0,0,0,0,0,0,0,0,0,0,-1.7363,-1.7363,0,-1.7378,-1.7378,-1.7378,-1.7338,-1.7337,-1.7336,-1.7335,-1.7351,-1.7353,-1.7354,0,0,0,0,0,0,0,0,0,0,0,0,0,-1.73,-1.7302,-1.7363,-1.7363,-1.7363,-1.7378,-1.7378,-1.7378,-1.7338,-1.7337,-1.7335,-1.7334,-1.735,-1.7352,-1.7354,0,0,0,0,0,0,0,0,0,0,0,0,0,-1.7323,-1.7302,-1.7363,-1.7345,-1.7344,-1.7378,-1.7378,-1.7378,-1.7339,-1.7337,-1.7335,-1.7333,-1.735,-1.7352,-1.7355,-1.7407,0,0,-1.7362,-1.7363,0,0,0,0,0,0,0,0,-1.7322,-1.7325,-1.7348,-1.7346,-1.7345,-1.7354,-1.7362,-1.7388,-1.7339,-1.7341,-1.7335,-1.7332,-1.7354,-1.7356,-1.7363,-1.7408,-1.7408,-1.7362,-1.7364,-1.7365,-1.7365,0,0,0,0,0,0,0,-1.732,-1.7324,-1.7369,-1.7348,-1.7346,-1.7337,-1.7338,-1.7367,-1.7358,-1.734,-1.7338,-1.734,-1.7353,-1.736,-1.7363,-1.7409,-1.7362,-1.7364,-1.7366,-1.7367,-1.7497,-1.7499,0,0,0,0,0,0,-1.7321,-1.7323,-1.7368,-1.7369,-1.7328,-1.7339,-1.734,-1.7353,-1.7357,-1.7356,-1.7341,-1.7338,-1.7357,-1.736,-1.7363,-1.7424,-1.7365,-1.7367,-1.7368,-1.7495,-1.7497,-1.7499,0,0,0,0,0,0,-1.7319,-1.7325,-1.7368,-1.7345,-1.735,-1.7342,-1.7357,-1.7354,-1.7362,-1.7358,-1.7356,-1.7351,-1.7356,-1.736,-1.7396,-1.7424,-1.7368,-1.737,-1.7492,-1.7495,-1.7498,-1.7547,0,0,0,0,0,0,-1.7318,-1.7325,-1.7345,-1.7346,-1.7351,-1.7401,-1.7359,-1.7356,-1.7366,-1.7362,-1.7366,-1.7365,-1.7355,-1.7393,-1.7398,-1.7427,-1.7372,-1.749,-1.7494,-1.7497,-1.7543,-1.7552,-1.7559,0,0,0,0,0,-1.7316,-1.7358,-1.7346,-1.7351,-1.7376,-1.7402,-1.7405,-1.7392,-1.7369,-1.7389,-1.7386,-1.7365,-1.742,-1.7397,-1.7403,-1.7432,-1.7488,-1.7493,-1.7497,-1.754,-1.755,-1.7559,0,0,0,0,0,0,-1.7361,-1.7358,-1.7344,-1.7389,-1.7396,-1.7395,-1.742,-1.7403,-1.7418,-1.7413,-1.7396,-1.7397,-1.7437,-1.7438,-1.7412,-1.7483,-1.745,-1.7456,-1.7481,-1.749,-1.7498,-1.7497,-1.7374,0,0,0,0,0,-1.7376,-1.7397,-1.7394,-1.7433,-1.7437,-1.7428,-1.7439,-1.7428,-1.7435,-1.7438,-1.7438,-1.7446,-1.7464,-1.7477,-1.7495,-1.7543,-1.7543,-1.7566,-1.7574,-1.7581,-1.7586,-1.7611,-1.7621,-1.7514,-1.7514,-1.7514,0,0,-1.7407,-1.7408,-1.7423,-1.7442,-1.7446,-1.7469,-1.7431,-1.7457,-1.7473,-1.7442,-1.7476,-1.7476,-1.7484,-1.7526,-1.7545,-1.7529,-1.7616,-1.7586,-1.7592,-1.7594,-1.7617,-1.7627,-1.7636,-1.7517,-1.7517,-1.7516,0,0,-1.7476,-1.7479,-1.7512,-1.7517,-1.7524,-1.7517,-1.7525,-1.7527,-1.7526,-1.7559,-1.7536,-1.7556,-1.7589,-1.7595,-1.7603,-1.7673,-1.7655,-1.7679,-1.7721,-1.7745,-1.7754,-1.7761,-1.7786,-1.7795,-1.7685,-1.7685,-1.7685,0,-1.7514,-1.7547,-1.7531,-1.7558,-1.7567,-1.7539,-1.7572,-1.7578,-1.759,-1.7597,-1.7579,-1.7619,-1.7622,-1.7666,-1.7683,-1.769,-1.7698,-1.7679,-1.7754,-1.7761,-1.7768,-1.7791,-1.7801,-1.7688,-1.7687,-1.7687,-1.7687,0,-1.7594,-1.7617,-1.7643,-1.7655,-1.7666,-1.7697,-1.7685,-1.7699,-1.7687,-1.7682,-1.7717,-1.772,-1.7737,-1.7746,-1.7735,-1.7788,-1.7777,-1.7757,-1.7724,-1.7781,-1.7803,-1.7812,-1.7692,-1.7691,-1.769,-1.7689,0,0,-1.7692,-1.7694,-1.7704,-1.7709,-1.7714,-1.7731,-1.776,-1.7776,-1.7788,-1.7798,-1.7821,-1.785,-1.783,-1.7839,-1.7828,-1.7849,-1.7905,-1.7826,-1.7826,-1.784,-1.7963,-1.7979,-1.799,-1.7892,-1.7894,-1.7895,-1.7963,0,-1.776,-1.7809,-1.7795,-1.7844,-1.7865,-1.7838,-1.7863,-1.7869,-1.7865,-1.7882,-1.7878,-1.7899,-1.7871,-1.7876,-1.7897,-1.7894,-1.7929,-1.7889,-1.7914,-1.7915,-1.7913,-1.8001,-1.8018,-1.8082,-1.7971,-1.7973,-1.7974,0,-1.7846,-1.7858,-1.7909,-1.791,-1.7918,-1.794,-1.7954,-1.7971,-1.7977,-1.7972,-1.7982,-1.7966,-1.7994,-1.796,-1.7999,-1.7972,-1.7981,-1.7981,-1.7983,-1.7985,-1.7948,-1.8006,-1.8102,-1.8111,-1.7987,-1.7986,-1.7985,0,-1.7913,-1.7942,-1.7975,-1.798,-1.7982,-1.7999,-1.8,-1.8004,-1.8015,-1.8026,-1.8033,-1.8048,-1.8057,-1.8069,-1.8057,-1.8034,-1.8097,-1.8063,-1.8095,-1.8095,-1.811,-1.8109,-1.8209,-1.8116,-1.8116,-1.8116,-1.8115,0,-1.799,-1.8023,-1.8005,-1.8027,-1.8062,-1.8045,-1.808,-1.8079,-1.8082,-1.8103,-1.8081,-1.81,-1.8084,-1.8102,-1.8093,-1.8126,-1.813,-1.8128,-1.8125,-1.813,-1.813,-1.8136,-1.8132,-1.8118,-1.8117,-1.8117,-1.8117,0,-1.8071,-1.8061,-1.8096,-1.8095,-1.8095,-1.8121,-1.812,-1.8139,-1.8133,-1.8159,-1.8164,-1.8156,-1.8176,-1.8165,-1.8187,-1.8181,-1.8223,-1.8215,-1.8221,-1.8219,-1.8252,-1.8249,-1.8359,-1.8372,-1.8271,-1.8271,-1.8272,0,-1.8122,-1.8146,-1.8146,-1.8158,-1.8161,-1.818,-1.819,-1.8175,-1.8186,-1.8194,-1.8213,-1.8231,-1.8244,-1.8278,-1.8273,-1.8289,-1.8281,-1.8318,-1.8283,-1.8287,-1.8281,-1.828,-1.8283,-1.8325,-1.8327,-1.8328,-1.8328,0,-1.8212,-1.8206,-1.8221,-1.8235,-1.8247,-1.8257,-1.8265,-1.8276,-1.8261,-1.8275,-1.8295,-1.8305,-1.8326,-1.8344,-1.8358,-1.8359,-1.8342,-1.8339,-1.8347,-1.8353,-1.8356,-1.8355,-1.8241,-1.8337,-1.8336,-1.8335,-1.8335,-1.8335,-1.828,-1.83,-1.8303,-1.832,-1.8325,-1.8333,-1.835,-1.8346,-1.8363,-1.8378,-1.8368,-1.8391,-1.8396,-1.8412,-1.8416,-1.8434,-1.8419,-1.8431,-1.8434,-1.8438,-1.8442,-1.8352,-1.8436,-1.8436,-1.8436,-1.8436,-1.8436,0,-1.8369,-1.837,-1.8386,-1.8398,-1.8411,-1.8392,-1.84,-1.8413,-1.8434,-1.8439,-1.8453,-1.8475,-1.8493,-1.8489,-1.8505,-1.852,-1.8512,-1.8525,-1.8524,-1.8524,-1.8454,-1.8446,-1.8531,-1.8531,-1.8531,-1.8531,-1.8531,-1.8531,-1.8418,-1.845,-1.8444,-1.8478,-1.8478,-1.85,-1.8506,-1.8513,-1.8518,-1.8544,-1.8558,-1.8555,-1.8557,-1.8572,-1.8587,-1.8586,-1.8593,-1.8608,-1.8604,-1.8539,-1.8529,-1.852,-1.8512,-1.861,-1.861,-1.8672,-1.8673,-1.8673]},{"header":{"parameterUnit":"m.s-1","parameterCategory":1,"la1":30.2991,"la2":30.254,"lo1":-89.0895,"lo2":-89.0444,"dy":0.0017,"dx":0.0017,"nx":28,"ny":28,"refTime":"2025-06-03T09:00:00:Z","depth":0,"parameterNumber":3,"parameterNumberName":"V-component_of_WINDS"},"data":[0,0,0,0,0,0,0,0,0,0,0,0,0,0,0,0,0,0,0,0,0,0,0,0,0,0,0,0,0,0,0,0,0,0,0,0,0,0,0,0,0,0,0,0,0,0,0,0,0,0,0,0,0,0,0,0,0,0,1.506,1.5059,0,1.5028,1.5028,1.5027,1.4973,1.4972,1.4971,1.497,1.4938,1.4938,1.4938,0,0,0,0,0,0,0,0,0,0,0,0,0,1.5073,1.5073,1.506,1.5059,1.5059,1.5028,1.5028,1.5027,1.4973,1.4972,1.4971,1.497,1.4938,1.4938,1.4938,0,0,0,0,0,0,0,0,0,0,0,0,0,1.5057,1.5073,1.506,1.5028,1.5025,1.5028,1.5028,1.5027,1.4973,1.4972,1.497,1.4969,1.4937,1.4938,1.4938,1.4969,0,0,1.4938,1.4938,0,0,0,0,0,0,0,0,1.5058,1.5057,1.5033,1.5031,1.5027,1.5003,1.502,1.5008,1.4974,1.4993,1.497,1.4968,1.4961,1.4959,1.4956,1.4967,1.4966,1.4938,1.4938,1.4938,1.4938,0,0,0,0,0,0,0,1.5059,1.5058,1.5047,1.5033,1.5029,1.5016,1.5012,1.5018,1.4986,1.4991,1.4987,1.4984,1.4958,1.4956,1.4955,1.4965,1.4938,1.4938,1.4938,1.4938,1.4999,1.5,0,0,0,0,0,0,1.5065,1.5059,1.5048,1.5046,1.5039,1.5017,1.5012,1.5012,1.4986,1.498,1.4986,1.4982,1.4957,1.4955,1.4954,1.4986,1.4938,1.4938,1.4938,1.4997,1.4999,1.5001,0,0,0,0,0,0,1.5066,1.5065,1.5049,1.5052,1.5049,1.5018,1.5018,1.5012,1.501,1.4981,1.4975,1.4989,1.4955,1.4953,1.4965,1.4985,1.4938,1.4938,1.4995,1.4998,1.5,1.5054,0,0,0,0,0,0,1.5066,1.5065,1.5077,1.5052,1.5049,1.5062,1.502,1.5013,1.501,1.5005,1.4983,1.4978,1.4954,1.4965,1.4965,1.4984,1.4939,1.4993,1.4996,1.4999,1.505,1.5058,1.5064,0,0,0,0,0,1.5067,1.5094,1.5078,1.5077,1.5063,1.5063,1.5061,1.5033,1.5012,1.5023,1.5005,1.4978,1.4983,1.4967,1.4966,1.4986,1.4992,1.4996,1.4999,1.5047,1.5056,1.5064,0,0,0,0,0,0,1.5122,1.509,1.5072,1.5092,1.508,1.5054,1.5067,1.5044,1.5039,1.5034,1.5,1.4996,1.5011,1.5,1.4982,1.5013,1.4983,1.4987,1.502,1.5029,1.5036,1.5037,1.4939,0,0,0,0,0,1.5136,1.5139,1.5111,1.5131,1.5127,1.5098,1.5097,1.5077,1.5064,1.5059,1.5041,1.503,1.5028,1.5028,1.5025,1.5049,1.5042,1.5062,1.5069,1.5075,1.5078,1.5087,1.5095,1.5012,1.5012,1.5012,0,0,1.5166,1.5149,1.5153,1.5142,1.5131,1.5134,1.5095,1.51,1.5102,1.506,1.5069,1.5056,1.5041,1.5058,1.5065,1.5049,1.5099,1.5079,1.5084,1.5084,1.5092,1.51,1.5107,1.5014,1.5014,1.5014,0,0,1.5221,1.521,1.5224,1.5214,1.5197,1.5178,1.5182,1.5159,1.5148,1.5157,1.5125,1.5127,1.5125,1.5115,1.511,1.5161,1.5136,1.5161,1.5197,1.5207,1.5214,1.5219,1.5236,1.5242,1.5165,1.5165,1.5165,0,1.526,1.5264,1.5235,1.5242,1.5237,1.5199,1.5213,1.5204,1.5188,1.5186,1.5169,1.5165,1.5152,1.5166,1.5178,1.5176,1.5178,1.5163,1.5215,1.5221,1.5225,1.524,1.5247,1.5168,1.5167,1.5167,1.5167,0,1.5312,1.5315,1.5329,1.5313,1.5311,1.5322,1.5293,1.5294,1.5274,1.5256,1.5265,1.5248,1.5241,1.5243,1.5224,1.5253,1.5244,1.5222,1.519,1.5237,1.525,1.5256,1.5172,1.5171,1.517,1.5169,0,0,1.54,1.5368,1.5373,1.5365,1.5344,1.5346,1.5355,1.5347,1.5348,1.5338,1.5343,1.5343,1.5322,1.5316,1.5295,1.5304,1.5343,1.528,1.528,1.5291,1.5373,1.5388,1.5396,1.5327,1.5328,1.5329,1.5373,0,1.5449,1.5462,1.5436,1.5455,1.5456,1.542,1.5427,1.5415,1.5399,1.5398,1.538,1.538,1.5353,1.5349,1.5356,1.5337,1.5359,1.5334,1.5331,1.5331,1.5334,1.5403,1.542,1.5462,1.5379,1.538,1.538,0,1.5509,1.5501,1.552,1.5497,1.5497,1.5504,1.5494,1.5494,1.5479,1.5467,1.546,1.5435,1.5441,1.5413,1.542,1.5403,1.5401,1.5391,1.5392,1.5389,1.5357,1.54,1.5475,1.5481,1.5389,1.5388,1.5388,0,1.5569,1.5564,1.5574,1.5569,1.5542,1.5548,1.5537,1.5521,1.5517,1.5509,1.5506,1.5499,1.5495,1.5489,1.5463,1.5445,1.5473,1.5442,1.5461,1.5462,1.5467,1.5467,1.5541,1.5469,1.5469,1.5469,1.5469,0,1.5626,1.5638,1.56,1.5606,1.5619,1.5589,1.5602,1.5588,1.5573,1.5575,1.5544,1.5547,1.5513,1.5512,1.5492,1.5499,1.5498,1.5487,1.5482,1.5489,1.549,1.5486,1.5481,1.547,1.547,1.547,1.5469,0,1.5694,1.5669,1.5678,1.5652,1.5646,1.5656,1.5634,1.5638,1.562,1.5623,1.5622,1.5594,1.5591,1.5564,1.5556,1.5542,1.5557,1.5546,1.5562,1.5557,1.5577,1.5575,1.5649,1.5657,1.5582,1.5583,1.5584,0,1.5731,1.574,1.5715,1.5714,1.5705,1.5704,1.57,1.5671,1.5668,1.5651,1.5657,1.5652,1.5645,1.5642,1.562,1.5613,1.56,1.5627,1.5599,1.5606,1.5598,1.5597,1.5597,1.5632,1.5633,1.5634,1.5635,0,1.5799,1.5786,1.5782,1.5773,1.577,1.5762,1.5752,1.5753,1.572,1.5719,1.5715,1.571,1.57,1.5695,1.5683,1.5672,1.5647,1.5644,1.5647,1.5654,1.5662,1.5656,1.5576,1.5642,1.5641,1.5641,1.564,1.564,1.5851,1.5857,1.584,1.5836,1.5825,1.5816,1.5819,1.5801,1.5797,1.5787,1.577,1.5768,1.5752,1.5734,1.5725,1.5722,1.5708,1.5714,1.5715,1.5717,1.572,1.5664,1.572,1.572,1.572,1.572,1.572,0,1.5915,1.5903,1.59,1.5886,1.5883,1.5861,1.5849,1.5847,1.5846,1.5833,1.5828,1.5823,1.5817,1.5794,1.5786,1.5788,1.5777,1.5787,1.5785,1.5783,1.5734,1.5731,1.5796,1.5796,1.5796,1.5796,1.5796,1.5796,1.5948,1.5956,1.5941,1.5943,1.593,1.5928,1.5922,1.5914,1.5903,1.5899,1.5894,1.5879,1.5862,1.5852,1.5845,1.5839,1.5836,1.5849,1.5839,1.5794,1.5786,1.5779,1.5776,1.585,1.585,1.5888,1.5888,1.5888]}]]